Погода в Бобруйске

Погода в Бобруйске : погода сейчас, прогноз погоды и архив. Всё, что Вы хотите узнать о погоде в Бобруйске!

Хотите узнать прогноз погоды в Бобруйске? Тогда Вам сюда: Погода в Бобруйске

Поиск расширенной информации на нашем сайте:

Другие новости

Новости СМИ2

Главная страница сайта

Новости сайта

03.07.2017

Напоминаем, что на нашем специализированном сайте Метеоцентр.Азия вы можете получить высокодетализированные автоматические прогнозы погоды по пунктам России, СНГ и мира в авиационном формате (включающие направление и скорость ветра, видимость, явления погоды, количество и форму облачности, нижнюю и верхнюю границу облачности).

Рекомендуем: для вашего бизнеса покупка офиса в бц Ринко Плаза Тимура Фрунзе ул., 24

Погода в Бобруйске - сегодня

Время (UTC), дата Ветер
(°,м/с) 
Видим.   Явления Облачность Т
(°С)
Тd
(°С)
f(%) Тe
(°С)
Pmin
(гПа)
dP
(гПа)
Po
(мм)
O2
(г/м3)
Тmin Tmax R s Состояние
почвы
09 18.06.18 070 (В) 20000 м    9/0 средняя, верхняя 
[Ac trans|Ci fib]
+21.9 +14 61 +29  1016.7  0.5  749  277           
12 18.06.18 360 (С) 20000 м    8/3 600 м верхняя 
[Cu hum|Ci sp]
+26.3 +12.4 42 +31  1016.1  -0.4  749  273           
15 18.06.18 360 (С) 20000 м    4/3 600 м верхняя 
[Cu hum|Ci fib]
+27.4 +11 36 +30  1014.9  -0.3  748  272           
18 18.06.18 тихо ()   17000 м    5/0 верхняя 
[Ci fib]
+21 +16.2 74 +32  1015.4  0.2  748  276    +27.5       
21 18.06.18 тихо ()   10 км    3/0 верхняя 
[Ci fib]
+15.5 +14.4 93 +23  1016.4  0.6  748  282           
00 19.06.18 тихо ()   10 км  туман поземный  4/0 верхняя 
[Ci fib]
+13.7 +12.9 95 +19  1016.6  748  285           
03 19.06.18 тихо ()   8000 м  дымка  9/0 средняя 
[Ac trans]
+14.6 +14 96 +22  1016.6  0.1  749  283           
06 19.06.18 080 (В) 16000 м    9/0 средняя 
[Ac trans]
+21.1 +15.2 69 +30  1016.6  0.4  749  277  +13.2         
09 19.06.18 250 (З) 20000 м    8/0 средняя 
[Ac trans]
+23.3 +16.1 64 +34  1016.3  -0.1  749  275           
12 19.06.18 280 (З) 20000 м    8/6 840 м средняя 
[Cu med, cong|Ac trans]
+27 +16 51 +38  1014.8  -1.3  748  271           
15 19.06.18 260 (З) 20000 м    3/0 средняя 
[Ac trans]
+26.7 +16 52 +37  1013.4  -1.4  747  271           
18 19.06.18 300 (СЗ) 20000 м    8/3 600 м средняя, верхняя 
[Cu med, cong|Ac trans|Ci fib]
+22.8 +15.4 63 +32  1013.6  747  274    +28       
21 19.06.18 280 (З) 10 км    3/0 верхняя 
[Ci fib]
+18.7 +12.2 66 +23  1014.9  747  280           
00 20.06.18 280 (З) 10 км    ясно 
+15.5 +11.5 77 +19  1016.8  1.6  749  283           
03 20.06.18 280 (З) 20000 м    ясно 
+14.7 +12 84 +19  1017.9  1.1  749  284           
06 20.06.18 280 (З) 20000 м    3/3 600 м 
[Cu hum]
+18.9 +11.5 62 +22  1018.2  0.5  750  280  +14.1         
09 20.06.18 280 (З) 6-10{12}  20000 м    3/3 600 м 
[Cu hum]
+21.9 +9.4 45 +22  1017.7  -0.3  750  278           
12 20.06.18 270 (З) 7-11{13}  20000 м    ясно 
+25.3 +7.4 32 +25  1016  -1.5  749  275           
15 20.06.18 290 (З) 5{12}  20000 м    ясно 
+25.8 +5.9 28 +26  1015.5  -0.5  748  275           
18 20.06.18 310 (СЗ) 2{11}  20000 м    ясно 
+21.9 +8.1 41 +22  1015.2  -0.4  748  278    +26.2       
21 20.06.18 240 (ЮЗ) 15000 м    ясно 
+14.3 +9.9 75 +17  1016.9  1.2  749  285           
00 21.06.18 тихо ()   10 км    ясно 
+10.4 +8.8 90 +10  1017.4  0.2  749  289           
03 21.06.18 тихо ()   10 км    ясно 
+11.2 +10 92 +12  1017.7  0.3  749  288           
06 21.06.18 210 (ЮЗ) 20000 м    ясно 
+21 +11.1 53 +24  1017.2  0.1  749  278  +9.1         
09 21.06.18 230 (ЮЗ) 20000 м    ясно 
+25.4 +10.8 40 +28  1014.6  -2.2  748  274           
Время (UTC), дата Ветер
(°,м/с) 
Видим.   Явления Облачность Т
(°С)
Тd
(°С)
f(%) Тe
(°С)
Pmin
(гПа)
dP
(гПа)
Po
(мм)
O2
(г/м3)
Тmin Tmax R s Состояние
почвы

Для получения пояснительной информации подведите курсор к названию столбца.

ПОГОДА в Бобруйске - архив

Всё, что Вы хотите узнать о погоде в Бобруйске - удобно и подробно!

Выберите нужную дату (начиная с 1 января 2015* года) и нажмите кнопку "Найти".
Будут отображены архивные сводки погоды по пункту Бобруйск, начиная с указанной даты.


Отображать данные в формате CSV (для использования в таблицах Excel)


Внимание! Наш архив погоды предназначен исключительно для личного некоммерческого использования в познавательных целях. Если Вам необходимы официальные справки о состоянии погоды (для производственных, юридических, коммерческих и т.п. целей), обращайтесь в органы Росгидромета.

*Примечание: данная дата относится к архиву по метеостанциям СССР (Россия, СНГ, Балтия).
Архив по метеостанциям Зарубежной Европы и Азии (кроме Китая) хранится 10 дней, по другим регионам земного шара (Китай, Африка, Америка, Австралия, Океания) - 1 день.

Бобруйск - район местоположения метеостанции


Название, широта, долгота, высота метеостанции:
Бобруйск 53.2°ш. 29.2°д. 156 м над ур. моря [Беларусь]

Дополнительная информация

В oтличие oт бoльшинства пoгoдных сайтoв мы публикуем пoдрoбную метеoинфoрмацию в детальнoм прoфессиoнальнoм фoрмате.

Характеристики температуры и влажнoсти вoздуха измеряются на высoте 2 м в тени вдали oт зданий и деревьев.
Скoрoсть ветра измеряется на высoте 10 м (на урoвне рoста челoвека скoрoсть ветра ниже в 1.5-2 раза). Если метеoстанция нахoдится в гoрoде или в лесу, тo скoрoсть ветра занижена на 2-4 м/с пo сравнению с oткрытым местoм. Скoрoсть ветра над акватoриями крупных рек и oзёр, а также на вершинах хoлмoв на 2-5 м/с выше, чем в oбычных услoвиях.
Атмoсфернoе давление в разных тoчках местнoсти мoжет значительнo oтличаться oт давления на метеoстанции, в зависимoсти oт услoвий рельефа (при пoдъёме на 10 м давление пoнижается примернo на 1 мм рт.ст.).